Tracking 22779 objects as of 15-Apr-2021
HD Live streaming from Space Station
objects crossing your sky now

METEOR 2-17 DEB

Track METEOR 2-17 DEB now!
10-day predictions


NORAD ID: 29302
Int'l Code: 1988-005R
Perigee: 893.9 km
Apogee: 916.5 km
Inclination: 82.5 °
Period: 102.9 minutes
Semi major axis: 7276 km
RCS: 0.0088 m2 (small)
Launch date: January 30, 1988
Source: Commonwealth of Independent States (former USSR) (CIS)
Launch site: PLESETSK MISSILE AND SPACE COMPLEX (PKMTR)

Note: This is SATELLITE DEBRIS
aabbcc
Your satellite tracking list
Your tracking list is empty




NASA's NSSDC Master Catalog

Two Line Element Set (TLE):
1 29302U 88005R   21102.87302838  .00000365  00000-0  24283-3 0  9998
2 29302  82.5442 323.8240 0015563 354.8738   5.2268 13.98767907356546
Source of the keplerian elements: AFSPC